map of DJE home
DJE - Airport
Location
City:  Djerba, Tunisia
Near (Alt.):Jerba
Name:Zarzis International Airport
ICAO:DTTJ
IATA:DJE

Details
Type:Airport (Aerodrome, Airfield)
Use:Public/Civil, International (customs port of entry)
Latitude:3352'32"N (33.875556)
Longitude:1046'38"E (10.777222)
Elevation:19 ft (6 m)
Variation:2.31E (WMM2015 magnetic declination)
0.09 annual change
Runways:1
Longest:10171 × 148 ft (3100 × 45 m), paved

Time
Time Zone:UTC+1 (DST+2)

Weather
METAR:DTTJ 220800Z VRB02KT 6000 RA SCT020TCU BKN026 23/20 Q1021 NOSIG
TAF:DTTJ 220505Z 2206/2306 07006KT 9999 SCT020
TEMPO 2206/2214 3000 -RA FEW023CB
BECMG 2214/2216 01008KT SCT015
BECMG 2218/2220 10005KT
BECMG 2222/2224 01020KT BKN015
TEMPO 2300/2306 1500 +TSRA SCT023CB

Related Locations
Nearby:
Farthest:GIS: 11655 mi / 18756 km
Gisborne, GIS, NZ

Find:

   beyond  
but within

Other Information
Maps:
NOTAMs:
Links:
Sources:

  
flag of Tunisia   

Sectional Chart

Flight Planning
at skyvector.com

Satellite Image

Google Maps Satellite view

 

Copyright © 2004-2017 Karl L. Swartz. All rights reserved.
The Great Circle Mapper name and logo are trademarks of the Great Circle Mapper.
All other trademarks mentioned herein belong to their respective owners.
Please see credits for attibutions and further copyright information.

  Follow gcmap on Facebook Follow gcmap on Twitter Follow gcmap on Google+ GCmap on LinkedIn

hCard Microformat

Geo Microformat